Change the Weather History Date:

Monday, January 13, 2014

  Actual Average Record
Temperature  
Mean Temperature 48 °F -  
Max Temperature 55 °F 45 °F 55 °F (2014)
Min Temperature 42 °F 33 °F 25 °F (2013)
Degree Days  
Heating Degree Days 16    
Moisture  
Dew Point 44 °F    
Average Humidity 74    
Maximum Humidity 87    
Minimum Humidity 62    
Precipitation  
Precipitation 0.00 in 0.16 in - ()
Sea Level Pressure  
Sea Level Pressure 30.39 in    
Wind  
Wind Speed 10 mph ()    
Max Wind Speed 23 mph    
Max Gust Speed 34 mph    
Visibility 19.9 miles    
Events      
Averages and records for this station are not official NWS values.
T = Trace of Precipitation, MM = Missing Value Source: Averaged Metar Reports

Daily Weather History Graph

Daily Weather History Graph

Search for Another Location

Airport or City:

Trip Planner

Search our weather history database for the weather conditions in past years. The results will help you decide how hot, cold, wet, or windy it might be!

Date:

Astronomy

Jan. 13, 2014 Rise Set
Actual Time 8:02 AM PST 4:43 PM PST
Civil Twilight 7:26 AM PST 5:18 PM PST
Nautical Twilight 6:47 AM PST 5:58 PM PST
Astronomical Twilight 6:09 AM PST 6:35 PM PST
Moon 3:04 PM PST (1/13) 5:54 AM PST (1/13)
Length of Visible Light 9h 52m
Length of Day
8h 40m
Waxing Gibbous, 95% of the Moon is Illuminated
Jan 13
Waxing Gibbous
Jan 15
Full
Jan 23
Last Quarter
Jan 30
New
Feb 6
First Quarter

Hourly Weather History & Observations

Time (PST) Temp. Dew Point Humidity Pressure Visibility Wind Dir Wind Speed Gust Speed Precip Events Conditions
12:00 AM 53.6 °F 42.8 °F 67% 30.19 in 30.0 mi WSW 23.0 mph 34.5 mph N/A   Mostly Cloudy
1:00 AM 51.8 °F 42.8 °F 71% 30.22 in 30.0 mi West 16.1 mph 28.8 mph N/A   Mostly Cloudy
2:00 AM 50.0 °F 42.8 °F 76% 30.23 in 30.0 mi SE 4.6 mph - N/A   Overcast
3:00 AM 51.8 °F 42.8 °F 71% 30.25 in 20.0 mi West 9.2 mph - N/A   Overcast
4:00 AM 51 °F 43 °F 67% 30.29 in 19 mi NW 6.9 mph - -   Overcast
4:00 AM 50.0 °F 42.8 °F 76% 30.29 in 20.0 mi WNW 8.1 mph - N/A   Overcast
5:00 AM 51.8 °F 42.8 °F 71% 30.29 in 20.0 mi West 6.9 mph - N/A   Overcast
6:00 AM 50.0 °F 42.8 °F 76% 30.27 in 20.0 mi SW 3.5 mph - N/A   Mostly Cloudy
6:42 AM 51.8 °F 42.8 °F 71% 30.29 in 20.0 mi WSW 12.7 mph 21.9 mph N/A   Mostly Cloudy
7:00 AM 51.8 °F 42.8 °F 71% 30.29 in 20.0 mi SW 13.8 mph 24.2 mph N/A   Mostly Cloudy
8:00 AM 50.0 °F 44.6 °F 82% 30.31 in 20.0 mi SE 6.9 mph - N/A   Mostly Cloudy
9:00 AM 51.8 °F 44.6 °F 76% 30.34 in 20.0 mi SW 11.5 mph - N/A   Mostly Cloudy
10:00 AM 54 °F 45 °F 62% 30.39 in 19 mi SW 5.8 mph - -   Mostly Cloudy
10:00 AM 53.6 °F 44.6 °F 72% 30.39 in 20.0 mi SSW 6.9 mph - N/A   Mostly Cloudy
11:00 AM 53.6 °F 46.4 °F 77% 30.40 in 20.0 mi South 12.7 mph 20.7 mph N/A   Mostly Cloudy
12:00 PM 55.4 °F 46.4 °F 72% 30.41 in 20.0 mi SSW 10.4 mph - N/A   Mostly Cloudy
1:00 PM 53.6 °F 46.4 °F 77% 30.42 in 20.0 mi SSW 5.8 mph - N/A   Overcast
2:00 PM 53.6 °F 46.4 °F 77% 30.44 in 20.0 mi South 16.1 mph - N/A   Overcast
3:00 PM 51.8 °F 46.4 °F 82% 30.45 in 20.0 mi South 12.7 mph 20.7 mph N/A   Mostly Cloudy
4:00 PM 53 °F 45 °F 67% 30.48 in 19 mi SSW 18.4 mph - -   Overcast
4:00 PM 53.6 °F 44.6 °F 72% 30.48 in 20.0 mi SSW 17.3 mph 25.3 mph N/A   Overcast
5:00 PM 51.8 °F 44.6 °F 76% 30.49 in 20.0 mi SW 11.5 mph - N/A   Overcast
6:00 PM 51.8 °F 44.6 °F 76% 30.49 in 20.0 mi WSW 12.7 mph - N/A   Overcast
7:00 PM 51.8 °F 44.6 °F 76% 30.50 in 20.0 mi WSW 10.4 mph - N/A   Overcast
8:00 PM 51.8 °F 44.6 °F 76% 30.53 in 20.0 mi West 9.2 mph - N/A   Mostly Cloudy
9:00 PM 50.0 °F 44.6 °F 82% 30.53 in 20.0 mi West 8.1 mph - N/A   Overcast
10:00 PM 50 °F 43 °F 70% 30.56 in 28 mi West 6.9 mph - -   Scattered Clouds
10:00 PM 50.0 °F 42.8 °F 76% 30.55 in 30.0 mi West 6.9 mph - N/A   Mostly Cloudy
11:00 PM 44.6 °F 41.0 °F 87% 30.57 in 30.0 mi Variable 2.3 mph - N/A   Scattered Clouds